QPF
0.00 0.00 0.00 0.00 0.00 0.00 0.00 0.00 0.00 0.00 0.00 0.00 0.00 0.00 0.00 0.00 0.00 0.00 0.00 0.00 0.00 0.00 0.00 0.00 0.00 0.00 0.00 0.00 0.00 0.00 0.00 0.00 0.00 0.00 0.00 0.00 0.01 0.01 0.02 0.03 0.02 0.02 0.02 0.02 0.03 0.05 0.05 0.05 0.06
0.00 0.00 0.00 0.00 0.00 0.00 0.00 0.00 0.00 0.00 0.00 0.00 0.00 0.00 0.00 0.00 0.00 0.00 0.00 0.00 0.00 0.00 0.00 0.00 0.00 0.00 0.00 0.00 0.00 0.00 0.00 0.00 0.00 0.00 0.00 0.00 0.01 0.01 0.02 0.05 0.05 0.04 0.04 0.03 0.04 0.05 0.04 0.03 0.05
0.00 0.00 0.00 0.00 0.00 0.00 0.00 0.00 0.00 0.00 0.00 0.00 0.00 0.00 0.00 0.00 0.00 0.00 0.00 0.00 0.00 0.00 0.00 0.00 0.00 0.00 0.00 0.00 0.00 0.00 0.00 0.00 0.00 0.00 0.01 0.00 0.01 0.01 0.02 0.04 0.05 0.04 0.03 0.02 0.02 0.03 0.02 0.03 0.05
0.00 0.00 0.00 0.00 0.00 0.00 0.00 0.00 0.00 0.00 0.00 0.00 0.00 0.00 0.00 0.00 0.00 0.00 0.00 0.00 0.00 0.00 0.00 0.00 0.00 0.00 0.00 0.00 0.00 0.00 0.00 0.00 0.00 0.00 0.01 0.01 0.00 0.00 0.01 0.02 0.02 0.02 0.02 0.01 0.01 0.01 0.02 0.04 0.05
0.00 0.00 0.00 0.00 0.00 0.00 0.00 0.00 0.00 0.00 0.00 0.00 0.00 0.00 0.00 0.00 0.00 0.00 0.00 0.00 0.00 0.00 0.00 0.00 0.00 0.00 0.00 0.00 0.00 0.00 0.00 0.00 0.00 0.00 0.01 0.01 0.00 0.00 0.00 0.01 0.01 0.01 0.01 0.01 0.01 0.01 0.02 0.03 0.04
0.00 0.00 0.00 0.00 0.00 0.00 0.00 0.00 0.00 0.00 0.00 0.00 0.00 0.00 0.00 0.00 0.00 0.00 0.00 0.00 0.00 0.00 0.00 0.00 0.00 0.00 0.00 0.00 0.00 0.00 0.00 0.00 0.00 0.00 0.01 0.01 0.01 0.00 0.00 0.00 0.00 0.00 0.00 0.00 0.01 0.01 0.01 0.02 0.03
0.00 0.00 0.00 0.00 0.00 0.00 0.00 0.00 0.00 0.00 0.00 0.00 0.00 0.00 0.00 0.00 0.00 0.00 0.00 0.00 0.00 0.00 0.00 0.00 0.00 0.00 0.00 0.00 0.00 0.00 0.00 0.00 0.00 0.00 0.00 0.00 0.00 0.00 0.00 0.00 0.00 0.00 0.00 0.00 0.00 0.01 0.01 0.01 0.02
0.00 0.00 0.00 0.00 0.00 0.00 0.00 0.00 0.00 0.00 0.00 0.00 0.00 0.00 0.00 0.00 0.00 0.00 0.00 0.00 0.00 0.00 0.00 0.00 0.00 0.00 0.00 0.00 0.00 0.00 0.00 0.00 0.00 0.00 0.00 0.00 0.00 0.00 0.00 0.00 0.00 0.00 0.00 0.00 0.00 0.00 0.01 0.01 0.01
0.00 0.00 0.00 0.00 0.00 0.00 0.00 0.00 0.00 0.00 0.00 0.00 0.00 0.00 0.00 0.00 0.00 0.00 0.00 0.00 0.00 0.00 0.00 0.00 0.00 0.00 0.00 0.00 0.00 0.00 0.00 0.00 0.00 0.00 0.00 0.00 0.00 0.00 0.00 0.00 0.00 0.00 0.00 0.00 0.00 0.00 0.00 0.00 0.00
0.00 0.00 0.00 0.00 0.00 0.00 0.00 0.00 0.00 0.00 0.00 0.00 0.00 0.00 0.00 0.00 0.00 0.00 0.00 0.00 0.00 0.00 0.00 0.00 0.00 0.00 0.00 0.00 0.00 0.00 0.00 0.01 0.00 0.00 0.01 0.00 0.00 0.00 0.00 0.00 0.00 0.00 0.00 0.00 0.00 0.00 0.00 0.00 0.00
0.00 0.00 0.00 0.00 0.00 0.00 0.00 0.00 0.00 0.00 0.00 0.00 0.00 0.00 0.00 0.00 0.00 0.00 0.00 0.00 0.00 0.00 0.00 0.00 0.00 0.00 0.00 0.00 0.00 0.00 0.01 0.02 0.02 0.02 0.02 0.02 0.01 0.00 0.00 0.00 0.00 0.00 0.00 0.00 0.00 0.00 0.00 0.00 0.01
0.00 0.00 0.00 0.00 0.00 0.00 0.00 0.00 0.00 0.00 0.00 0.00 0.00 0.00 0.00 0.00 0.00 0.00 0.00 0.00 0.00 0.00 0.00 0.00 0.00 0.00 0.00 0.00 0.00 0.00 0.00 0.01 0.02 0.02 0.02 0.02 0.03 0.02 0.01 0.01 0.00 0.00 0.00 0.00 0.00 0.00 0.00 0.00 0.00
0.00 0.00 0.00 0.00 0.00 0.00 0.00 0.00 0.00 0.00 0.00 0.00 0.00 0.00 0.00 0.00 0.00 0.00 0.00 0.00 0.00 0.00 0.00 0.00 0.00 0.00 0.00 0.00 0.00 0.00 0.00 0.00 0.00 0.01 0.01 0.01 0.02 0.03 0.02 0.01 0.00 0.00 0.00 0.00 0.00 0.00 0.00 0.00 0.00
0.00 0.00 0.00 0.00 0.00 0.00 0.00 0.00 0.00 0.00 0.00 0.00 0.00 0.00 0.00 0.00 0.00 0.00 0.00 0.00 0.00 0.00 0.00 0.00 0.00 0.00 0.00 0.00 0.00 0.00 0.00 0.00 0.00 0.00 0.01 0.01 0.01 0.01 0.01 0.00 0.00 0.00 0.00 0.00 0.00 0.00 0.00 0.00 0.01
0.00 0.00 0.00 0.00 0.00 0.00 0.00 0.00 0.00 0.00 0.00 0.00 0.00 0.00 0.00 0.00 0.00 0.00 0.00 0.00 0.00 0.00 0.00 0.00 0.00 0.00 0.00 0.00 0.00 0.00 0.00 0.00 0.00 0.00 0.00 0.00 0.00 0.00 0.00 0.00 0.00 0.00 0.00 0.00 0.00 0.00 0.01 0.02 0.04
0.00 0.00 0.00 0.00 0.00 0.00 0.00 0.00 0.00 0.00 0.00 0.00 0.00 0.00 0.00 0.00 0.00 0.00 0.00 0.00 0.00 0.00 0.00 0.00 0.00 0.00 0.00 0.00 0.00 0.00 0.00 0.00 0.00 0.00 0.00 0.00 0.00 0.00 0.00 0.00 0.00 0.00 0.00 0.00 0.01 0.02 0.04 0.05 0.08
0.00 0.00 0.00 0.00 0.00 0.00 0.00 0.00 0.00 0.00 0.00 0.00 0.00 0.00 0.00 0.00 0.00 0.00 0.00 0.00 0.00 0.00 0.00 0.00 0.00 0.00 0.00 0.00 0.00 0.00 0.00 0.00 0.00 0.00 0.00 0.00 0.00 0.00 0.00 0.00 0.01 0.00 0.01 0.01 0.02 0.03 0.06 0.08 0.10
0.00 0.00 0.00 0.00 0.00 0.00 0.00 0.00 0.00 0.00 0.00 0.00 0.00 0.00 0.00 0.00 0.00 0.00 0.00 0.00 0.00 0.00 0.00 0.00 0.00 0.00 0.00 0.00 0.00 0.00 0.00 0.00 0.00 0.00 0.00 0.00 0.00 0.00 0.00 0.00 0.00 0.01 0.02 0.03 0.04 0.05 0.07 0.09 0.11
0.00 0.00 0.00 0.00 0.00 0.00 0.00 0.00 0.00 0.00 0.00 0.00 0.00 0.00 0.00 0.00 0.00 0.00 0.00 0.00 0.00 0.00 0.00 0.00 0.00 0.00 0.00 0.00 0.00 0.00 0.00 0.00 0.00 0.00 0.00 0.00 0.00 0.00 0.00 0.00 0.00 0.00 0.01 0.02 0.03 0.05 0.06 0.06 0.08
0.00 0.00 0.00 0.00 0.00 0.00 0.00 0.00 0.00 0.00 0.00 0.00 0.00 0.00 0.00 0.00 0.00 0.00 0.00 0.00 0.00 0.00 0.00 0.00 0.00 0.00 0.00 0.00 0.00 0.00 0.00 0.00 0.00 0.00 0.00 0.00 0.00 0.00 0.00 0.00 0.00 0.00 0.00 0.00 0.01 0.02 0.03 0.03 0.03
0.00 0.00 0.00 0.00 0.00 0.00 0.00 0.00 0.00 0.00 0.00 0.00 0.00 0.00 0.00 0.00 0.00 0.00 0.00 0.00 0.00 0.00 0.00 0.00 0.00 0.00 0.00 0.00 0.00 0.00 0.00 0.00 0.00 0.00 0.00 0.00 0.00 0.00 0.00 0.00 0.00 0.00 0.00 0.00 0.00 0.00 0.01 0.01 0.01
0.00 0.00 0.00 0.00 0.00 0.00 0.00 0.00 0.00 0.00 0.00 0.00 0.00 0.00 0.00 0.00 0.00 0.00 0.00 0.00 0.00 0.00 0.00 0.00 0.00 0.00 0.00 0.00 0.00 0.00 0.00 0.00 0.00 0.00 0.00 0.00 0.00 0.00 0.00 0.00 0.00 0.00 0.00 0.00 0.00 0.00 0.00 0.00 0.00
0.00 0.00 0.00 0.00 0.00 0.00 0.00 0.00 0.00 0.00 0.00 0.00 0.00 0.00 0.00 0.00 0.00 0.00 0.00 0.00 0.00 0.00 0.00 0.00 0.00 0.00 0.00 0.00 0.00 0.00 0.00 0.00 0.00 0.00 0.00 0.00 0.00 0.00 0.00 0.00 0.00 0.00 0.00 0.00 0.00 0.00 0.00 0.00 0.00
0.00 0.00 0.00 0.00 0.00 0.00 0.00 0.00 0.00 0.00 0.00 0.00 0.00 0.00 0.00 0.00 0.00 0.00 0.00 0.00 0.00 0.00 0.00 0.00 0.00 0.00 0.00 0.00 0.00 0.00 0.00 0.00 0.00 0.00 0.00 0.00 0.00 0.00 0.00 0.00 0.00 0.00 0.00 0.00 0.00 0.00 0.00 0.00 0.00
0.00 0.00 0.00 0.00 0.00 0.00 0.00 0.00 0.00 0.00 0.00 0.00 0.00 0.00 0.00 0.00 0.00 0.00 0.00 0.00 0.00 0.00 0.00 0.00 0.00 0.00 0.00 0.00 0.00 0.00 0.00 0.00 0.00 0.00 0.00 0.00 0.00 0.00 0.00 0.00 0.00 0.00 0.00 0.00 0.00 0.00 0.00 0.00 0.00
0.00 0.00 0.00 0.00 0.00 0.00 0.00 0.00 0.00 0.00 0.00 0.00 0.00 0.00 0.00 0.00 0.00 0.00 0.00 0.00 0.00 0.00 0.00 0.00 0.00 0.00 0.00 0.00 0.00 0.00 0.00 0.00 0.00 0.00 0.00 0.00 0.00 0.00 0.00 0.00 0.00 0.00 0.00 0.00 0.00 0.00 0.00 0.00 0.00
0.00 0.00 0.00 0.00 0.00 0.00 0.00 0.00 0.00 0.00 0.00 0.00 0.00 0.00 0.00 0.00 0.00 0.00 0.00 0.00 0.00 0.00 0.00 0.00 0.00 0.00 0.00 0.00 0.00 0.00 0.00 0.00 0.00 0.00 0.00 0.00 0.00 0.00 0.00 0.00 0.00 0.00 0.00 0.00 0.00 0.00 0.00 0.00 0.00
0.00 0.00 0.00 0.00 0.00 0.00 0.00 0.00 0.00 0.00 0.00 0.00 0.00 0.00 0.00 0.00 0.00 0.00 0.00 0.00 0.00 0.00 0.00 0.00 0.00 0.00 0.00 0.00 0.00 0.00 0.00 0.00 0.01 0.01 0.01 0.01 0.01 0.01 0.01 0.01 0.00 0.00 0.00 0.00 0.00 0.00 0.00 0.00 0.00
0.00 0.00 0.00 0.00 0.00 0.00 0.00 0.00 0.00 0.00 0.00 0.00 0.00 0.00 0.00 0.00 0.00 0.00 0.00 0.00 0.00 0.00 0.00 0.00 0.00 0.00 0.01 0.00 0.00 0.01 0.01 0.02 0.03 0.04 0.04 0.05 0.04 0.04 0.03 0.02 0.01 0.01 0.00 0.00 0.00 0.00 0.00 0.00 0.00
0.00 0.00 0.00 0.00 0.00 0.00 0.00 0.00 0.00 0.00 0.00 0.00 0.00 0.00 0.00 0.00 0.00 0.00 0.00 0.00 0.00 0.00 0.00 0.00 0.01 0.02 0.02 0.01 0.01 0.01 0.02 0.04 0.07 0.09 0.10 0.09 0.08 0.07 0.05 0.04 0.03 0.02 0.01 0.00 0.00 0.00 0.00 0.00 0.00
MSLP
1010.53 1011.01 1011.52 1011.96 1012.22 1012.23 1011.98 1011.49 1010.88 1010.24 1009.71 1009.36 1009.21 1009.26 1009.42 1009.60 1009.73 1009.72 1009.57 1009.32 1009.04 1008.83 1008.76 1008.89 1009.21 1009.67 1010.20 1010.70 1011.09 1011.34 1011.44 1011.43 1011.38 1011.34 1011.37 1011.48 1011.66 1011.89 1012.12 1012.31 1012.44 1012.52 1012.56 1012.61 1012.68 1012.79 1012.94 1013.10 1013.25
1010.80 1011.30 1011.79 1012.15 1012.30 1012.17 1011.78 1011.19 1010.50 1009.83 1009.29 1008.95 1008.83 1008.90 1009.08 1009.26 1009.37 1009.34 1009.18 1008.93 1008.67 1008.49 1008.48 1008.66 1009.03 1009.54 1010.11 1010.63 1011.04 1011.31 1011.43 1011.44 1011.40 1011.38 1011.41 1011.52 1011.68 1011.88 1012.06 1012.20 1012.29 1012.34 1012.38 1012.43 1012.52 1012.66 1012.83 1013.02 1013.19
1011.15 1011.64 1012.07 1012.34 1012.36 1012.10 1011.60 1010.92 1010.17 1009.48 1008.95 1008.64 1008.54 1008.62 1008.79 1008.95 1009.03 1008.98 1008.80 1008.55 1008.32 1008.18 1008.21 1008.44 1008.85 1009.39 1009.96 1010.49 1010.91 1011.18 1011.32 1011.35 1011.35 1011.35 1011.40 1011.51 1011.66 1011.82 1011.96 1012.06 1012.12 1012.15 1012.18 1012.24 1012.35 1012.51 1012.71 1012.92 1013.11
1011.58 1012.05 1012.40 1012.55 1012.45 1012.07 1011.47 1010.73 1009.97 1009.28 1008.78 1008.49 1008.41 1008.48 1008.62 1008.74 1008.78 1008.69 1008.50 1008.26 1008.05 1007.95 1008.02 1008.28 1008.71 1009.25 1009.81 1010.32 1010.72 1010.98 1011.13 1011.19 1011.21 1011.25 1011.33 1011.44 1011.59 1011.74 1011.86 1011.93 1011.97 1011.99 1012.02 1012.09 1012.21 1012.40 1012.62 1012.85 1013.05
1012.06 1012.48 1012.74 1012.79 1012.58 1012.11 1011.45 1010.68 1009.92 1009.27 1008.79 1008.53 1008.44 1008.49 1008.59 1008.66 1008.64 1008.51 1008.31 1008.08 1007.90 1007.84 1007.95 1008.23 1008.66 1009.17 1009.69 1010.16 1010.52 1010.76 1010.90 1010.97 1011.03 1011.10 1011.20 1011.34 1011.50 1011.65 1011.77 1011.84 1011.87 1011.89 1011.93 1012.01 1012.15 1012.35 1012.58 1012.81 1013.01
1012.52 1012.88 1013.07 1013.02 1012.72 1012.19 1011.50 1010.75 1010.03 1009.42 1008.98 1008.73 1008.64 1008.64 1008.68 1008.67 1008.60 1008.43 1008.22 1008.01 1007.87 1007.86 1008.00 1008.29 1008.70 1009.17 1009.64 1010.04 1010.34 1010.54 1010.66 1010.74 1010.81 1010.91 1011.05 1011.22 1011.40 1011.57 1011.69 1011.78 1011.82 1011.86 1011.91 1012.01 1012.16 1012.35 1012.57 1012.78 1012.97
1012.89 1013.19 1013.30 1013.17 1012.81 1012.26 1011.59 1010.88 1010.22 1009.67 1009.28 1009.04 1008.92 1008.87 1008.84 1008.76 1008.62 1008.43 1008.22 1008.04 1007.94 1007.97 1008.15 1008.45 1008.83 1009.25 1009.65 1009.97 1010.21 1010.36 1010.45 1010.52 1010.61 1010.73 1010.89 1011.09 1011.29 1011.48 1011.62 1011.73 1011.80 1011.86 1011.93 1012.03 1012.18 1012.35 1012.55 1012.73 1012.88
1013.11 1013.35 1013.38 1013.20 1012.81 1012.27 1011.64 1011.01 1010.42 1009.95 1009.60 1009.38 1009.23 1009.13 1009.02 1008.87 1008.68 1008.46 1008.26 1008.12 1008.07 1008.15 1008.35 1008.66 1009.02 1009.38 1009.70 1009.95 1010.11 1010.21 1010.27 1010.33 1010.42 1010.55 1010.73 1010.94 1011.16 1011.36 1011.53 1011.66 1011.75 1011.83 1011.92 1012.03 1012.16 1012.31 1012.46 1012.59 1012.70
1013.17 1013.32 1013.29 1013.06 1012.67 1012.17 1011.61 1011.06 1010.58 1010.19 1009.90 1009.69 1009.52 1009.37 1009.20 1008.99 1008.76 1008.54 1008.35 1008.24 1008.24 1008.36 1008.58 1008.88 1009.21 1009.52 1009.77 1009.95 1010.05 1010.10 1010.13 1010.17 1010.25 1010.39 1010.58 1010.79 1011.01 1011.21 1011.39 1011.53 1011.63 1011.73 1011.83 1011.93 1012.05 1012.16 1012.26 1012.34 1012.39
1013.06 1013.14 1013.04 1012.79 1012.41 1011.96 1011.49 1011.05 1010.67 1010.38 1010.15 1009.97 1009.80 1009.61 1009.40 1009.15 1008.90 1008.67 1008.50 1008.42 1008.45 1008.59 1008.82 1009.11 1009.40 1009.65 1009.83 1009.95 1010.00 1010.01 1010.01 1010.04 1010.12 1010.25 1010.42 1010.62 1010.83 1011.02 1011.19 1011.32 1011.43 1011.53 1011.63 1011.73 1011.82 1011.90 1011.96 1011.98 1011.98
1012.86 1012.86 1012.71 1012.43 1012.08 1011.69 1011.31 1010.99 1010.74 1010.54 1010.40 1010.26 1010.11 1009.92 1009.68 1009.42 1009.15 1008.92 1008.76 1008.70 1008.74 1008.89 1009.10 1009.34 1009.58 1009.77 1009.89 1009.95 1009.96 1009.94 1009.93 1009.95 1010.02 1010.13 1010.29 1010.46 1010.64 1010.80 1010.94 1011.05 1011.15 1011.25 1011.33 1011.42 1011.49 1011.54 1011.56 1011.55 1011.51
1012.67 1012.59 1012.38 1012.09 1011.76 1011.44 1011.17 1010.97 1010.84 1010.76 1010.70 1010.64 1010.53 1010.36 1010.13 1009.87 1009.60 1009.37 1009.21 1009.14 1009.17 1009.28 1009.44 1009.62 1009.79 1009.90 1009.96 1009.97 1009.94 1009.90 1009.88 1009.89 1009.95 1010.05 1010.18 1010.32 1010.46 1010.58 1010.68 1010.76 1010.84 1010.91 1010.98 1011.06 1011.11 1011.14 1011.14 1011.11 1011.05
1012.58 1012.43 1012.17 1011.87 1011.57 1011.32 1011.14 1011.06 1011.06 1011.10 1011.15 1011.18 1011.13 1011.01 1010.82 1010.58 1010.32 1010.08 1009.90 1009.80 1009.78 1009.83 1009.91 1010.00 1010.08 1010.11 1010.10 1010.05 1009.98 1009.92 1009.89 1009.89 1009.94 1010.02 1010.12 1010.22 1010.32 1010.39 1010.45 1010.50 1010.54 1010.59 1010.64 1010.70 1010.75 1010.77 1010.76 1010.72 1010.65
1012.66 1012.45 1012.16 1011.86 1011.59 1011.40 1011.32 1011.35 1011.46 1011.63 1011.80 1011.92 1011.97 1011.92 1011.78 1011.57 1011.32 1011.08 1010.87 1010.71 1010.61 1010.56 1010.54 1010.53 1010.50 1010.43 1010.34 1010.23 1010.12 1010.03 1009.98 1009.96 1009.99 1010.05 1010.11 1010.18 1010.23 1010.26 1010.28 1010.29 1010.30 1010.33 1010.37 1010.41 1010.45 1010.47 1010.47 1010.43 1010.37
1012.94 1012.69 1012.38 1012.08 1011.84 1011.71 1011.71 1011.84 1012.07 1012.36 1012.64 1012.87 1013.01 1013.04 1012.96 1012.79 1012.56 1012.30 1012.05 1011.82 1011.64 1011.48 1011.34 1011.21 1011.07 1010.91 1010.73 1010.56 1010.39 1010.26 1010.17 1010.12 1010.11 1010.13 1010.15 1010.18 1010.19 1010.19 1010.18 1010.16 1010.15 1010.15 1010.18 1010.21 1010.25 1010.28 1010.29 1010.26 1010.22
1013.38 1013.11 1012.80 1012.51 1012.30 1012.22 1012.30 1012.51 1012.84 1013.23 1013.62 1013.95 1014.18 1014.29 1014.28 1014.14 1013.93 1013.65 1013.36 1013.06 1012.78 1012.52 1012.27 1012.03 1011.79 1011.54 1011.28 1011.03 1010.80 1010.60 1010.45 1010.34 1010.27 1010.23 1010.21 1010.20 1010.18 1010.15 1010.11 1010.08 1010.06 1010.06 1010.07 1010.10 1010.14 1010.18 1010.20 1010.20 1010.18
1013.92 1013.65 1013.35 1013.08 1012.91 1012.88 1013.02 1013.30 1013.70 1014.16 1014.63 1015.05 1015.37 1015.55 1015.59 1015.50 1015.29 1015.00 1014.66 1014.31 1013.95 1013.60 1013.26 1012.94 1012.61 1012.28 1011.95 1011.63 1011.32 1011.04 1010.80 1010.60 1010.44 1010.33 1010.24 1010.18 1010.13 1010.09 1010.05 1010.02 1010.00 1010.00 1010.01 1010.04 1010.08 1010.12 1010.16 1010.18 1010.19
1014.47 1014.22 1013.95 1013.71 1013.58 1013.60 1013.77 1014.10 1014.54 1015.06 1015.59 1016.07 1016.44 1016.68 1016.77 1016.70 1016.51 1016.21 1015.85 1015.44 1015.03 1014.62 1014.22 1013.83 1013.45 1013.07 1012.68 1012.29 1011.90 1011.52 1011.17 1010.85 1010.58 1010.37 1010.20 1010.09 1010.01 1009.96 1009.93 1009.92 1009.92 1009.93 1009.95 1009.98 1010.03 1010.08 1010.13 1010.18 1010.22
1014.98 1014.76 1014.52 1014.33 1014.24 1014.28 1014.49 1014.84 1015.31 1015.85 1016.40 1016.91 1017.32 1017.59 1017.71 1017.67 1017.49 1017.18 1016.80 1016.37 1015.92 1015.48 1015.06 1014.65 1014.24 1013.83 1013.40 1012.95 1012.47 1011.99 1011.51 1011.05 1010.65 1010.32 1010.06 1009.88 1009.77 1009.72 1009.72 1009.74 1009.77 1009.81 1009.85 1009.90 1009.95 1010.00 1010.07 1010.14 1010.21
1015.41 1015.22 1015.03 1014.88 1014.83 1014.90 1015.12 1015.47 1015.94 1016.47 1017.02 1017.54 1017.96 1018.24 1018.38 1018.35 1018.17 1017.86 1017.47 1017.02 1016.57 1016.12 1015.70 1015.29 1014.89 1014.48 1014.03 1013.53 1012.98 1012.38 1011.77 1011.18 1010.63 1010.17 1009.80 1009.56 1009.42 1009.38 1009.41 1009.47 1009.56 1009.64 1009.71 1009.77 1009.82 1009.88 1009.96 1010.05 1010.15
1015.77 1015.62 1015.47 1015.37 1015.35 1015.44 1015.65 1015.99 1016.43 1016.94 1017.46 1017.95 1018.36 1018.65 1018.78 1018.75 1018.57 1018.26 1017.86 1017.41 1016.95 1016.51 1016.11 1015.73 1015.35 1014.95 1014.50 1013.98 1013.37 1012.69 1011.95 1011.22 1010.53 1009.94 1009.48 1009.17 1009.00 1008.97 1009.03 1009.15 1009.29 1009.42 1009.52 1009.60 1009.67 1009.73 1009.81 1009.92 1010.05
1016.10 1015.99 1015.88 1015.81 1015.82 1015.92 1016.13 1016.44 1016.84 1017.29 1017.77 1018.22 1018.60 1018.86 1018.98 1018.94 1018.75 1018.43 1018.02 1017.57 1017.11 1016.68 1016.30 1015.95 1015.61 1015.24 1014.81 1014.28 1013.63 1012.89 1012.06 1011.21 1010.41 1009.70 1009.15 1008.78 1008.58 1008.56 1008.66 1008.83 1009.02 1009.20 1009.34 1009.44 1009.51 1009.57 1009.65 1009.76 1009.91
1016.48 1016.38 1016.30 1016.27 1016.30 1016.40 1016.59 1016.86 1017.20 1017.60 1018.02 1018.41 1018.74 1018.98 1019.07 1019.02 1018.81 1018.48 1018.05 1017.58 1017.12 1016.69 1016.32 1015.99 1015.69 1015.36 1014.96 1014.44 1013.80 1013.02 1012.14 1011.22 1010.32 1009.53 1008.90 1008.48 1008.26 1008.24 1008.36 1008.57 1008.81 1009.03 1009.21 1009.32 1009.39 1009.44 1009.51 1009.61 1009.76
1016.92 1016.83 1016.78 1016.77 1016.81 1016.91 1017.08 1017.30 1017.59 1017.91 1018.26 1018.59 1018.87 1019.06 1019.13 1019.06 1018.83 1018.47 1018.02 1017.53 1017.05 1016.61 1016.23 1015.92 1015.64 1015.35 1015.00 1014.52 1013.90 1013.14 1012.25 1011.29 1010.35 1009.51 1008.82 1008.36 1008.11 1008.08 1008.21 1008.44 1008.71 1008.96 1009.15 1009.27 1009.33 1009.37 1009.41 1009.49 1009.63
1017.44 1017.36 1017.32 1017.33 1017.39 1017.49 1017.62 1017.80 1018.02 1018.27 1018.55 1018.81 1019.04 1019.18 1019.22 1019.11 1018.86 1018.48 1018.01 1017.49 1016.97 1016.51 1016.12 1015.81 1015.55 1015.30 1014.99 1014.58 1014.02 1013.29 1012.44 1011.50 1010.55 1009.68 1008.97 1008.46 1008.19 1008.13 1008.25 1008.48 1008.75 1009.00 1009.19 1009.30 1009.35 1009.35 1009.36 1009.41 1009.52
1018.02 1017.94 1017.93 1017.96 1018.02 1018.12 1018.23 1018.36 1018.51 1018.69 1018.89 1019.08 1019.25 1019.35 1019.35 1019.22 1018.96 1018.56 1018.06 1017.51 1016.96 1016.46 1016.05 1015.74 1015.49 1015.27 1015.02 1014.67 1014.18 1013.54 1012.75 1011.86 1010.94 1010.08 1009.35 1008.81 1008.50 1008.39 1008.47 1008.67 1008.91 1009.14 1009.31 1009.40 1009.42 1009.40 1009.37 1009.38 1009.46
1018.62 1018.56 1018.56 1018.62 1018.70 1018.78 1018.87 1018.96 1019.05 1019.15 1019.27 1019.40 1019.50 1019.57 1019.54 1019.40 1019.13 1018.72 1018.21 1017.63 1017.06 1016.54 1016.10 1015.77 1015.53 1015.33 1015.13 1014.85 1014.46 1013.90 1013.20 1012.38 1011.52 1010.68 1009.94 1009.38 1009.01 1008.85 1008.86 1008.99 1009.18 1009.37 1009.50 1009.56 1009.56 1009.50 1009.44 1009.41 1009.45
1019.20 1019.16 1019.20 1019.28 1019.38 1019.47 1019.53 1019.58 1019.61 1019.64 1019.69 1019.75 1019.80 1019.83 1019.79 1019.64 1019.38 1018.98 1018.47 1017.90 1017.32 1016.77 1016.31 1015.96 1015.72 1015.54 1015.37 1015.16 1014.84 1014.38 1013.78 1013.04 1012.24 1011.43 1010.70 1010.10 1009.67 1009.43 1009.36 1009.41 1009.52 1009.65 1009.73 1009.76 1009.73 1009.66 1009.57 1009.52 1009.52
1019.74 1019.74 1019.82 1019.94 1020.06 1020.15 1020.20 1020.21 1020.18 1020.15 1020.13 1020.13 1020.14 1020.14 1020.10 1019.97 1019.72 1019.36 1018.88 1018.33 1017.75 1017.20 1016.73 1016.36 1016.10 1015.92 1015.77 1015.60 1015.35 1014.97 1014.44 1013.78 1013.04 1012.27 1011.54 1010.90 1010.42 1010.10 1009.93 1009.88 1009.91 1009.97 1010.00 1010.00 1009.95 1009.86 1009.78 1009.71 1009.69
1020.26 1020.31 1020.43 1020.59 1020.74 1020.84 1020.87 1020.84 1020.77 1020.68 1020.60 1020.56 1020.54 1020.52 1020.49 1020.39 1020.19 1019.88 1019.45 1018.94 1018.39 1017.85 1017.36 1016.97 1016.68 1016.48 1016.32 1016.16 1015.94 1015.61 1015.14 1014.55 1013.86 1013.12 1012.39 1011.73 1011.19 1010.79 1010.53 1010.39 1010.33 1010.32 1010.31 1010.27 1010.22 1010.14 1010.06 1010.00 1009.98
Thickness
5742 5747 5751 5741 5723 5716 5722 5751 5762 5758 5762 5768 5771 5770 5765 5759 5751 5742 5769 5784 5785 5783 5778 5772 5767 5764 5761 5759 5756 5754 5752 5750 5748 5747 5746 5746 5745 5744 5744 5743 5742 5741 5740 5738 5737 5737 5736 5735 5734
5741 5747 5742 5728 5712 5708 5731 5751 5754 5755 5761 5768 5769 5769 5766 5763 5771 5768 5771 5778 5781 5781 5776 5769 5764 5760 5757 5754 5752 5750 5748 5747 5745 5744 5743 5743 5742 5741 5741 5740 5740 5738 5737 5736 5735 5733 5732 5731 5730
5739 5744 5728 5718 5714 5718 5731 5748 5750 5759 5766 5764 5764 5767 5763 5761 5771 5770 5771 5776 5778 5777 5773 5766 5760 5756 5752 5750 5748 5746 5745 5744 5742 5741 5740 5740 5739 5738 5738 5737 5736 5736 5734 5733 5732 5730 5729 5728 5727
5738 5732 5726 5713 5711 5736 5742 5748 5751 5753 5759 5762 5760 5759 5765 5770 5770 5769 5772 5774 5773 5773 5770 5761 5756 5752 5749 5746 5745 5743 5741 5740 5739 5738 5737 5736 5735 5735 5734 5733 5732 5731 5730 5729 5728 5727 5726 5725 5723
5734 5721 5711 5708 5720 5741 5751 5752 5751 5747 5753 5760 5758 5751 5753 5766 5770 5769 5768 5768 5767 5767 5765 5757 5753 5749 5746 5743 5741 5739 5737 5736 5735 5734 5733 5733 5732 5731 5730 5728 5728 5727 5726 5725 5724 5723 5722 5721 5721
5721 5718 5702 5705 5726 5742 5750 5753 5750 5747 5752 5759 5755 5749 5746 5763 5762 5761 5763 5763 5764 5761 5759 5754 5750 5746 5742 5739 5736 5735 5733 5731 5730 5729 5728 5728 5727 5726 5725 5724 5723 5723 5722 5721 5720 5719 5719 5718 5718
5712 5708 5702 5711 5721 5732 5743 5749 5743 5739 5741 5745 5752 5744 5745 5753 5758 5760 5760 5759 5758 5755 5753 5750 5746 5743 5739 5736 5734 5731 5729 5727 5725 5724 5723 5722 5721 5721 5720 5720 5719 5718 5717 5716 5715 5715 5715 5715 5715
5717 5708 5707 5716 5720 5725 5739 5745 5746 5740 5737 5753 5752 5738 5733 5746 5756 5756 5754 5751 5749 5747 5746 5744 5744 5742 5738 5735 5732 5728 5725 5723 5721 5719 5718 5717 5716 5715 5715 5715 5714 5713 5712 5711 5711 5710 5711 5711 5712
5716 5699 5698 5713 5714 5721 5736 5733 5739 5746 5741 5746 5751 5746 5745 5748 5750 5746 5743 5740 5739 5739 5739 5738 5736 5736 5735 5733 5730 5724 5721 5718 5716 5715 5714 5712 5711 5711 5712 5712 5711 5709 5708 5707 5707 5707 5707 5708 5709
5707 5691 5706 5719 5720 5719 5723 5723 5727 5731 5728 5730 5736 5742 5743 5744 5741 5736 5733 5732 5732 5731 5730 5729 5727 5726 5726 5725 5722 5720 5717 5715 5713 5712 5712 5709 5708 5708 5709 5709 5706 5704 5704 5704 5704 5704 5704 5704 5705
5711 5702 5713 5721 5725 5720 5715 5717 5724 5718 5712 5717 5720 5726 5730 5732 5732 5730 5729 5728 5726 5724 5721 5719 5717 5716 5715 5715 5714 5713 5712 5712 5710 5709 5710 5708 5706 5705 5704 5703 5702 5701 5700 5700 5701 5701 5701 5701 5703
5711 5712 5718 5719 5722 5717 5712 5713 5711 5710 5711 5721 5723 5723 5723 5720 5720 5722 5723 5721 5718 5715 5712 5710 5709 5707 5706 5706 5706 5704 5704 5704 5705 5704 5704 5702 5700 5699 5698 5697 5697 5697 5697 5697 5697 5697 5697 5698 5699
5710 5712 5719 5721 5720 5717 5714 5709 5707 5709 5717 5719 5717 5713 5710 5709 5710 5712 5715 5713 5710 5706 5704 5701 5699 5698 5696 5695 5695 5696 5696 5696 5697 5696 5695 5694 5693 5691 5690 5690 5689 5689 5690 5690 5691 5691 5691 5693 5695
5710 5709 5711 5715 5716 5715 5705 5702 5703 5703 5710 5705 5699 5692 5692 5692 5695 5696 5698 5699 5698 5696 5695 5692 5690 5688 5686 5685 5685 5686 5686 5687 5687 5686 5686 5685 5684 5683 5681 5681 5680 5680 5680 5681 5682 5683 5684 5685 5688
5710 5700 5703 5712 5712 5707 5698 5686 5688 5695 5697 5688 5682 5678 5676 5676 5677 5677 5680 5683 5683 5682 5683 5682 5679 5676 5674 5674 5674 5674 5674 5675 5676 5675 5675 5675 5675 5674 5672 5671 5669 5670 5671 5672 5672 5673 5674 5676 5678
5702 5693 5688 5698 5705 5701 5688 5668 5674 5685 5682 5671 5666 5663 5660 5659 5660 5662 5664 5666 5667 5667 5667 5667 5667 5664 5661 5662 5662 5661 5661 5662 5662 5663 5663 5662 5662 5663 5662 5660 5658 5659 5660 5661 5660 5661 5661 5663 5664
5692 5679 5682 5687 5694 5693 5682 5665 5667 5675 5668 5657 5651 5648 5646 5644 5645 5645 5646 5647 5647 5647 5647 5648 5649 5648 5648 5647 5647 5647 5647 5647 5647 5648 5648 5649 5649 5649 5649 5648 5647 5647 5647 5648 5648 5648 5649 5649 5650
5664 5667 5671 5674 5683 5680 5670 5662 5659 5662 5656 5643 5637 5633 5632 5630 5628 5628 5628 5628 5627 5626 5626 5627 5628 5630 5631 5632 5632 5631 5631 5631 5631 5632 5632 5633 5633 5633 5634 5633 5634 5634 5633 5633 5633 5633 5635 5636 5637
5668 5666 5665 5675 5681 5672 5664 5658 5650 5649 5641 5631 5624 5619 5616 5615 5613 5612 5611 5610 5608 5606 5605 5605 5605 5608 5609 5610 5611 5612 5612 5613 5615 5616 5617 5617 5617 5617 5618 5618 5618 5619 5618 5618 5618 5619 5619 5620 5622
5668 5663 5665 5671 5675 5666 5661 5654 5642 5636 5627 5619 5612 5606 5602 5600 5599 5597 5595 5592 5590 5587 5585 5585 5585 5586 5588 5589 5591 5594 5597 5599 5599 5599 5600 5600 5600 5600 5602 5603 5602 5602 5603 5602 5602 5603 5602 5603 5605
5662 5658 5651 5649 5657 5663 5658 5643 5627 5623 5617 5610 5602 5595 5591 5587 5583 5581 5578 5575 5573 5570 5567 5565 5564 5565 5567 5568 5571 5574 5577 5580 5581 5580 5581 5582 5582 5582 5583 5585 5585 5585 5587 5586 5586 5586 5586 5586 5588
5651 5656 5651 5647 5637 5637 5645 5621 5610 5608 5602 5596 5587 5581 5577 5573 5569 5565 5562 5558 5555 5551 5549 5546 5545 5545 5545 5544 5544 5545 5549 5552 5556 5559 5562 5565 5565 5563 5564 5565 5565 5566 5568 5569 5570 5571 5571 5571 5570
5648 5651 5649 5647 5635 5628 5631 5618 5610 5599 5585 5577 5572 5568 5563 5559 5554 5549 5545 5540 5537 5534 5531 5528 5527 5525 5521 5518 5516 5517 5520 5526 5532 5535 5538 5542 5545 5544 5544 5545 5545 5545 5547 5550 5552 5553 5554 5554 5554
5648 5649 5656 5652 5633 5613 5626 5613 5594 5579 5567 5561 5557 5552 5547 5542 5537 5532 5527 5523 5519 5516 5513 5510 5506 5501 5496 5491 5487 5486 5489 5496 5503 5510 5512 5515 5519 5521 5523 5525 5524 5524 5527 5530 5533 5535 5536 5537 5538
5636 5624 5621 5617 5611 5610 5619 5609 5574 5564 5558 5550 5541 5534 5529 5523 5517 5512 5507 5503 5500 5496 5491 5486 5482 5478 5471 5465 5460 5458 5460 5468 5477 5485 5489 5492 5494 5497 5501 5505 5505 5505 5508 5512 5515 5517 5518 5520 5521
5620 5613 5592 5581 5588 5597 5603 5589 5553 5559 5551 5540 5529 5520 5513 5506 5499 5492 5486 5481 5476 5471 5466 5461 5457 5454 5449 5442 5437 5435 5436 5442 5453 5463 5469 5471 5472 5473 5478 5484 5486 5487 5491 5495 5498 5499 5501 5503 5505
5607 5601 5596 5580 5581 5578 5590 5548 5550 5553 5539 5525 5513 5503 5493 5486 5479 5472 5466 5459 5453 5447 5443 5438 5435 5431 5426 5420 5414 5412 5412 5415 5424 5437 5447 5452 5455 5457 5459 5462 5466 5469 5474 5477 5480 5482 5484 5487 5490
5605 5593 5580 5572 5562 5557 5569 5567 5538 5529 5512 5502 5491 5481 5472 5464 5456 5448 5441 5435 5430 5425 5422 5419 5414 5408 5401 5393 5386 5384 5385 5390 5397 5408 5420 5429 5435 5439 5442 5444 5447 5451 5455 5460 5464 5466 5469 5472 5474
5588 5585 5577 5566 5558 5541 5539 5541 5525 5502 5490 5478 5470 5460 5450 5442 5434 5428 5422 5416 5412 5409 5406 5402 5396 5389 5378 5368 5361 5359 5362 5367 5375 5384 5394 5404 5412 5417 5422 5426 5429 5433 5438 5443 5447 5450 5453 5456 5458
5580 5571 5559 5542 5540 5534 5517 5520 5515 5491 5475 5461 5450 5443 5435 5426 5417 5409 5403 5399 5397 5394 5391 5387 5380 5371 5361 5353 5347 5345 5346 5351 5357 5364 5373 5381 5390 5397 5401 5407 5413 5419 5424 5429 5433 5435 5439 5442 5444